Overview Statistics Trail Chart Weather Telemetry Raw packets
 

This is the latest recevied weather packets stored in our database for station/object KI6PPU. If no packets are shown the sender has not sent any weather packets the latest 10 day(s).

<< 1 2 3 4 5 6 >>
Time Temp. Humidity Pressure Rain* Wind** Luminosity Snow
1788564103 23.89° C 40% 1016.3 hPa 0 mm - 399 W/m² -
1788563798 24.44° C 40% 1016.4 hPa 0 mm - 248 W/m² -
1788563494 24.44° C 38% 1016.4 hPa 0 mm - 456 W/m² -
1788563193 25° C 36% 1016.4 hPa 0 mm - 350 W/m² -
1788562888 25° C 38% 1016.5 hPa 0 mm - 383 W/m² -
1788562586 25° C 36% 1016.4 hPa 0 mm - 417 W/m² -
1788562281 25° C 39% 1016.6 hPa 0 mm - 500 W/m² -
1788561975 24.44° C 39% 1016.7 hPa 0 mm - 493 W/m² -
1788561670 25° C 41% 1016.5 hPa 0 mm - 546 W/m² -
1788561369 23.89° C 40% 1016.6 hPa 0 mm - 482 W/m² -
1788561065 24.44° C 43% 1016.6 hPa 0 mm - 292 W/m² -
1788560761 23.89° C 43% 1016.5 hPa 0 mm - 301 W/m² -
1788560456 24.44° C 44% 1016.6 hPa 0 mm - 449 W/m² -
1788560156 24.44° C 46% 1016.5 hPa 0 mm - 623 W/m² -
1788559856 24.44° C 44% 1016.5 hPa 0 mm - 511 W/m² -
1788559550 25° C 45% 1016.6 hPa 0 mm - 561 W/m² -
1788559246 23.89° C 47% 1016.5 hPa 0 mm - 334 W/m² -
1788558940 25° C 45% 1016.4 hPa 0 mm - 537 W/m² -
1788558636 24.44° C 47% 1016.5 hPa 0 mm - 592 W/m² -
1788558331 23.89° C 49% 1016.4 hPa 0 mm - 664 W/m² -
1788558027 23.33° C 49% 1016.5 hPa 0 mm - 551 W/m² -
1788557725 23.89° C 49% 1016.2 hPa 0 mm - 670 W/m² -
1788557422 23.33° C 50% 1016.5 hPa 0 mm - 493 W/m² -
1788557120 23.33° C 50% 1016.5 hPa 0 mm - 431 W/m² -
1788556816 23.33° C 51% 1016.3 hPa 0 mm - 587 W/m² -

* Rain latest hour (hover to see other rain measurements)
** Current wind speed in m/s (hover to see current wind gust speed)